Regional Weather Roundup
Issued by NWS Northern Indiana

Home | Current Version | Previous Version | Graphics & Text | Print | Product List | Glossary On
Versions: 1 2 3 4 5 6 7 8 9 10 11 12 13 14 15 16 17 18 19 20 21 22 23 24 25 26 27 28 29 30 31 32 33 34 35 36 37 38 39 40 41 42 43 44 45 46 47 48 49 50
000
ASUS43 KIWX 191710
RWRIWX

KIWX WEATHER ROUNDUP
NATIONAL WEATHER SERVICE NORTHERN INDIANA
1200 PM EST FRI DEC 19 2014

NOTE: "FAIR" INDICATES FEW OR NO CLOUDS BELOW 12,000 FEET WITH NO
SIGNIFICANT WEATHER AND/OR OBSTRUCTIONS TO VISIBILITY.

* THESE STATIONS ARE NOT UNDER NWS QUALITY CONTROL. THEY ALSO MAY NOT
  REPORT WEATHER SUCH AS PRECIPITATION OR FOG.

INZ001>027-191800-
NORTHERN INDIANA

CITY           SKY/WX    TMP DP  RH WIND       PRES   REMARKS
VALPARAISO     CLOUDY    31  24  75 W9        30.30F WCI  23
MICHIGAN CITY* CLOUDY    32  25  74 CALM      30.29F
LAPORTE*       CLOUDY    32  27  81 CALM      30.29F
KNOX*          CLOUDY    31  24  73 W7        30.28F WCI  25
SOUTH BEND     CLOUDY    33  24  69 N3        30.28F
ELKHART*       MOSUNNY   30  18  59 CALM      30.28F
GOSHEN         MOSUNNY   32  19  58 NW7       30.27F WCI  26
MONTICELLO*    CLOUDY    28  25  89 W5        30.30F WCI  22
LOGANSPORT*    CLOUDY    28  25  86 W3        30.31F FOG
ROCHESTER*     CLOUDY    32  30  93 W3        30.29F FOG
WARSAW*        CLOUDY    32  27  80 CALM      30.27F
ANGOLA*        CLOUDY    28  16  59 CALM      30.26F
FORT WAYNE     PTSUNNY   30  24  78 VRB7      30.28F WCI  23
HUNTINGTON*    CLOUDY    30  25  83 W5        30.28F WCI  25
PERU/GRISSOM   CLOUDY    28  28 100 W3        30.28F
MARION*        CLOUDY    27  24  89 CALM      30.29F

$$
INZ028>050-191800-
CENTRAL INDIANA

CITY           SKY/WX    TMP DP  RH WIND       PRES   REMARKS
LAFAYETTE      CLOUDY    25  23  92 W3        30.31F FOG
KOKOMO*        CLOUDY    28  23  80 W5        30.29F WCI  23
MUNCIE*        CLOUDY    28  22  78 W3        30.28F
INDIANAPOLIS   CLOUDY    26  21  81 CALM      30.28F

$$
MIZ043>046-050>051-056>058-064>065-071>073-077>080-191800-
SOUTHWEST LOWER MICHIGAN

CITY           SKY/WX    TMP DP  RH WIND       PRES   REMARKS
BATTLE CREEK   CLOUDY    29  21  72 CALM      30.27R
BENTON HARBOR  CLOUDY    32  24  72 VRB3      30.28F
COLDWATER*     CLOUDY    28  27  93 MISG      30.26S FOG
HILLSDALE*     CLOUDY    29  25  86 CALM      30.24S
HOLLAND        SUNNY     31  21  66 E6        30.29S WCI  25
GRAND RAPIDS   MOSUNNY   28  19  69 SE3       30.27F
KALAMAZOO      PTSUNNY   31  21  66 CALM      30.27S
STURGIS*       CLOUDY    28  25  86 CALM      30.26F
THREE RIVERS*  FAIR      32  21  63 CALM      30.27F

$$
OHZ001>008-015>018-024>025-191800-
NORTHWEST OHIO

CITY           SKY/WX    TMP DP  RH WIND       PRES   REMARKS
WAUSEON*       CLOUDY    30  27  86 CALM      30.26F
DEFIANCE       CLOUDY    30  25  81 SW3       30.27F
FINDLAY        CLOUDY    30  25  81 W7        30.26F WCI  23
TOLEDO EXPRESS CLOUDY    30  25  81 W3        30.27S HAZE
TOLEDO METCALF CLOUDY    30  25  81 E5        30.28F WCI  25
LIMA           CLOUDY    31  24  75 W6        30.26F HAZE    WCI  25

$$
AND FOR LAKE MICHIGAN COASTAL AND OPEN LAKE BUOY OBSERVATIONS

STATION/POSITION TEMP    WIND        PRES    VSBY  WAVE
                 AIR SEA DIR/SP/G                  HT/PER
                 (F)     (DEG/KT/KT) (MB)    (MI)  (FT/S)
CALUMET HARBOR    31      20/  2/  3 1025.2S
SAINT JOSEPH      32     340/  4/  7 1026.1R

$$
&&



USA.gov is the U.S. government's official web portal to all federal, state and local government web resources and services.